PTP Alzenau

Punkttermin-Prognose für Alzenau
Modell: MOSMIX (Deutscher Wetterdienst)
Modelllaufzeit: 05 UTC
Aktualisierung: stündlich
Samstag - 22.06.2024
| Wetter - | Temperaturen | Wind | Niederschlag | Druck | Sonne
Zeit GZ | Bewölkung | TT MAX MIN TG TM | DD FF FX1 | RR1 RR24 | PPPP | SS1 SS24
02:00 Uhr | --- | --- --- --- --- --- | --- --- --- | --- | --- | ---
03:00 Uhr | --- | --- --- --- --- --- | --- --- --- | --- | --- | ---
04:00 Uhr | --- | --- --- --- --- --- | --- --- --- | --- | --- | ---
05:00 Uhr | --- | --- --- --- --- --- | --- --- --- | --- | --- | ---
06:00 Uhr | --- | --- --- --- --- --- | --- --- --- | --- | --- | ---
07:00 Uhr | --- | --- --- --- --- --- | --- --- --- | --- | --- | ---
08:00 Uhr | wolkig | 16 --- 14 18 --- | SW 9 --- | 0.0 | 1015 | 0.4
09:00 Uhr | wolkig | 17 --- --- 20 --- | S 9 --- | 0.0 | 1015 | 0.4
10:00 Uhr | wolkig | 18 --- --- 21 --- | SW 11 --- | 0.0 | 1015 | 0.5
11:00 Uhr | wolkig | 19 --- --- 22 --- | SW 13 --- | 0.0 | 1014 | 0.4
12:00 Uhr | wolkig | 19 --- --- 23 --- | SW 13 --- | 0.0 | 1014 | 0.4
13:00 Uhr | wolkig | 19 --- --- 24 --- | SW 13 --- | 0.0 | 1014 | 0.3
14:00 Uhr | leichter Regen | 20 --- --- 23 --- | SW 13 --- | 0.3 | 1014 | 0.2
15:00 Uhr | leichter Regen | 20 --- --- 23 --- | SW 13 --- | 0.2 | 1014 | 0.2
16:00 Uhr | leichter Regen | 19 --- --- 22 --- | SW 13 --- | 0.3 | 1014 | 0.2
17:00 Uhr | leichter Regen | 19 --- --- 21 --- | SW 13 --- | 0.3 | 1014 | 0.2
18:00 Uhr | leichter Regen | 19 --- --- 20 --- | SW 11 --- | 0.5 | 1014 | 0.2
19:00 Uhr | leichter Regen | 18 --- --- 20 --- | SW 11 --- | 0.5 | 1014 | 0.2
20:00 Uhr | wolkig | 18 21 --- 19 --- | SW 9 --- | 0.0 | 1015 | 0.2
21:00 Uhr | wolkig | 17 --- --- 18 --- | SW 9 --- | 0.0 | 1015 | 0.1
22:00 Uhr | wolkig | 16 --- --- 16 --- | SW 7 --- | 0.0 | 1016 | 0.1
23:00 Uhr | wolkig | 16 --- --- 16 --- | SW 6 --- | 0.0 | 1016 | 0.0
00:00 Uhr | wolkig | 15 --- --- 15 --- | W 6 --- | 0.0 | 1017 | 0.0
Sonntag - 23.06.2024
| Wetter - | Temperaturen | Wind | Niederschlag | Druck | Sonne
Zeit GZ | Bewölkung | TT MAX MIN TG TM | DD FF FX1 | RR1 RR24 | PPPP | SS1 SS24
01:00 Uhr | wolkig | 14 --- --- 14 --- | W 6 --- | 0.0 | 1017 | 0.0
02:00 Uhr | wolkig | 14 --- --- 14 --- | W 4 --- | 0.0 | 1017 | 0.0
03:00 Uhr | wolkig | 14 --- --- 14 --- | W 4 --- | 0.0 | 1017 | 0.0
04:00 Uhr | wolkig | 13 --- --- 14 --- | W 4 --- | 0.0 | 1018 | 0.0
05:00 Uhr | wolkig | 13 --- --- 14 --- | W 4 --- | 0.0 | 1018 | 0.0
06:00 Uhr | wolkig | 13 --- --- 14 --- | NW 4 --- | 0.0 | 1018 | 0.1
07:00 Uhr | wolkig | 14 --- --- 15 --- | W 4 --- | 0.0 | 1018 | 0.2
08:00 Uhr | wolkig | 15 --- 12 18 --- | W 6 --- | 0.0 | 1019 | 0.2
09:00 Uhr | wolkig | 17 --- --- 20 --- | NW 6 --- | 0.0 | 1019 | 0.3
10:00 Uhr | wolkig | 18 --- --- 22 --- | NO 6 --- | 0.0 | 1019 | 0.4
11:00 Uhr | wolkig | 18 --- --- 24 --- | NO 6 --- | 0.0 | 1019 | 0.4
12:00 Uhr | wolkig | 20 --- --- 25 --- | NO 6 --- | 0.0 | 1019 | 0.4
13:00 Uhr | wolkig | 20 --- --- 26 --- | NO 7 --- | 0.0 | 1019 | 0.4
14:00 Uhr | wolkig | 21 --- --- 27 --- | N 7 --- | 0.0 | 1019 | 0.4
15:00 Uhr | wolkig | 22 --- --- 28 --- | N 7 --- | 0.0 | 1019 | 0.4
16:00 Uhr | wolkig | 22 --- --- 27 --- | N 9 --- | 0.0 | 1019 | 0.4
17:00 Uhr | wolkig | 22 --- --- 26 --- | N 9 --- | 0.0 | 1019 | 0.4
18:00 Uhr | wolkig | 22 --- --- 25 --- | N 9 --- | 0.0 | 1018 | 0.4
19:00 Uhr | wolkig | 22 --- --- 24 --- | N 9 --- | 0.0 | 1018 | 0.4
20:00 Uhr | wolkig | 21 23 --- 22 --- | N 9 --- | 0.0 | 1018 | 0.4
21:00 Uhr | wolkig | 20 --- --- 20 --- | N 9 --- | 0.0 | 1019 | 0.3
22:00 Uhr | wolkig | 19 --- --- 19 --- | NW 7 --- | 0.0 | 1019 | 0.2
23:00 Uhr | leicht bewölkt | 17 --- --- 17 | NW 7 --- | 0.0 | 1020 | 0.0
00:00 Uhr | leicht bewölkt | 16 --- --- 16 18 | NW 7 --- | 0.0 0.0 | 1020 | 0.0 5.7
Montag - 24.06.2024
| Wetter - | Temperaturen | Wind | Niederschlag | Druck | Sonne
Zeit GZ | Bewölkung | TT MAX MIN TG TM | DD FF FX1 | RR1 RR24 | PPPP | SS1 SS24
01:00 Uhr | leicht bewölkt | 15 --- --- 15 --- | NW 7 --- | 0.0 | 1020 | 0.0
02:00 Uhr | leicht bewölkt | 15 --- --- 15 --- | NW 7 --- | 0.0 | 1020 | 0.0
03:00 Uhr | leicht bewölkt | 14 --- --- 14 --- | NW 7 --- | 0.0 | 1020 | 0.0
04:00 Uhr | leicht bewölkt | 14 --- --- 13 --- | NW 7 --- | 0.0 | 1020 | 0.0
05:00 Uhr | leicht bewölkt | 13 --- --- 13 --- | NW 7 --- | 0.0 | 1020 | 0.0
06:00 Uhr | leicht bewölkt | 14 --- --- 15 --- | NW 7 --- | 0.0 | 1021 | 0.2
07:00 Uhr | leicht bewölkt | 14 --- --- 17 --- | NW 7 --- | 0.0 | 1020 | 0.4
08:00 Uhr | leicht bewölkt | 16 --- 12 19 --- | NW 7 --- | 0.0 | 1020 | 0.6
09:00 Uhr | leicht bewölkt | 18 --- --- 22 --- | N 7 --- | 0.0 | 1020 | 0.7
10:00 Uhr | leicht bewölkt | 20 --- --- 25 --- | NO 7 --- | 0.0 | 1020 | 0.7
11:00 Uhr | wolkig | 21 --- --- 27 --- | NO 9 --- | 0.0 | 1020 | 0.7
12:00 Uhr | wolkig | 22 --- --- 28 --- | NO 9 --- | 0.0 | 1019 | 0.7
13:00 Uhr | wolkig | 23 --- --- 29 --- | NO 11 --- | 0.0 | 1019 | 0.7
14:00 Uhr | wolkig | 23 --- --- 29 --- | NO 11 --- | 0.0 | 1018 | 0.6
15:00 Uhr | wolkig | 24 --- --- 30 --- | NO 11 --- | 0.0 | 1018 | 0.5
16:00 Uhr | wolkig | 24 --- --- 30 --- | NO 11 --- | 0.0 | 1017 | 0.5
17:00 Uhr | leicht bewölkt | 24 --- --- 29 --- | NO 11 --- | 0.0 | 1017 | 0.7
18:00 Uhr | leicht bewölkt | 24 --- --- 28 --- | NO 11 --- | 0.0 | 1016 | 0.7
19:00 Uhr | leicht bewölkt | 24 --- --- 26 --- | NO 11 --- | 0.0 | 1016 | 0.7
20:00 Uhr | leicht bewölkt | 23 25 --- 24 --- | NO 11 --- | 0.0 | 1016 | 0.6
21:00 Uhr | leicht bewölkt | 22 --- --- 22 --- | NO 9 --- | 0.0 | 1016 | 0.5
22:00 Uhr | leicht bewölkt | 20 --- --- 21 --- | N 7 --- | 0.0 | 1017 | 0.3
23:00 Uhr | leicht bewölkt | 18 --- --- 19 | NW 7 --- | 0.0 | 1017 | 0.0
00:00 Uhr | leicht bewölkt | 17 --- --- 18 19 | NW 7 --- | 0.0 0.0 | 1017 | 0.0 9.8
Dienstag - 25.06.2024
| Wetter - | Temperaturen | Wind | Niederschlag | Druck | Sonne
Zeit GZ | Bewölkung | TT MAX MIN TG TM | DD FF FX3 | RR3 RR24 | PPPP | SS3 SS24
02:00 Uhr | leicht bewölkt | 15 --- --- 16 --- | NW 7 --- | 0.0 | 1017 | 0.0
05:00 Uhr | leicht bewölkt | 14 --- --- 15 --- | NW 7 --- | 0.0 | 1016 | 0.0
08:00 Uhr | leicht bewölkt | 17 --- 13 21 --- | NW 7 --- | 0.0 | 1016 | 1.4
11:00 Uhr | leicht bewölkt | 23 --- --- 28 --- | O 9 --- | 0.0 | 1015 | 2.2
14:00 Uhr | leicht bewölkt | 26 --- --- 32 --- | O 13 --- | 0.0 | 1014 | 2.2
17:00 Uhr | leicht bewölkt | 26 --- --- 31 --- | O 13 --- | 0.0 | 1012 | 1.9
20:00 Uhr | leicht bewölkt | 24 28 --- 26 --- | O 11 --- | 0.0 | 1012 | 1.9
23:00 Uhr | leicht bewölkt | 20 --- --- 21 21 | NW 7 --- | 0.0 0.0 | 1012 | 0.7 10.3
Mittwoch - 26.06.2024
| Wetter - | Temperaturen | Wind | Niederschlag | Druck | Sonne
Zeit GZ | Bewölkung | TT MAX MIN TG TM | DD FF FX3 | RR3 RR24 | PPPP | SS3 SS24
02:00 Uhr | leicht bewölkt | 17 --- --- 18 --- | NW 9 --- | 0.0 | 1012 | 0.0
05:00 Uhr | leicht bewölkt | 16 --- --- 18 --- | NW 7 --- | 0.0 | 1012 | 0.0
08:00 Uhr | leicht bewölkt | 18 --- 15 22 --- | NW 7 --- | 0.0 | 1012 | 1.2
11:00 Uhr | leicht bewölkt | 23 --- --- 28 --- | O 9 --- | 0.0 | 1011 | 2.1
14:00 Uhr | wolkig | 25 --- --- 30 --- | O 11 --- | 0.0 | 1010 | 1.9
17:00 Uhr | wolkig | 26 --- --- 30 --- | SO 13 --- | 0.0 | 1008 | 1.6
20:00 Uhr | wolkig | 24 28 --- 25 --- | SO 11 --- | 0.0 | 1008 | 1.3
23:00 Uhr | wolkig | 20 --- --- 21 21 | NW 7 --- | 0.0 0.0 | 1010 | 0.4 8.4
Donnerstag - 27.06.2024
| Wetter - | Temperaturen | Wind | Niederschlag | Druck | Sonne
Zeit GZ | Bewölkung | TT MAX MIN TG TM | DD FF FX3 | RR3 RR24 | PPPP | SS3 SS24
02:00 Uhr | wolkig | 18 --- --- 19 --- | NW 7 --- | 0.0 | 1010 | 0.0
05:00 Uhr | wolkig | 17 --- --- 19 --- | NW 7 --- | 0.0 | 1010 | 0.0
08:00 Uhr | wolkig | 19 --- 16 22 --- | W 7 --- | 0.0 | 1010 | 0.5
11:00 Uhr | wolkig | 22 --- --- 27 --- | S 9 --- | 0.0 | 1010 | 1.1
14:00 Uhr | wolkig | 25 --- --- 29 --- | SW 13 --- | 0.0 | 1010 | 1.2
17:00 Uhr | Gewitter | 25 --- --- 28 --- | SW 13 --- | 0.0 | 1010 | 1.0
20:00 Uhr | wolkig | 22 27 --- 23 --- | W 11 --- | 0.0 | 1010 | 0.9
23:00 Uhr | wolkig | 19 --- --- 20 21 | W 7 --- | 0.0 0.0 | 1011 | 0.3 5.0
Freitag - 28.06.2024
| Wetter - | Temperaturen | Wind | Niederschlag | Druck | Sonne
Zeit GZ | Bewölkung | TT MAX MIN TG TM | DD FF FX3 | RR3 RR24 | PPPP | SS3 SS24
02:00 Uhr | wolkig | 17 --- --- 18 --- | NW 6 --- | 0.0 | 1011 | 0.0
05:00 Uhr | wolkig | 16 --- --- 18 --- | W 6 --- | 0.0 | 1011 | 0.0
08:00 Uhr | wolkig | 17 --- 15 20 --- | W 7 --- | 0.0 | 1012 | 0.4
11:00 Uhr | wolkig | 20 --- --- 25 --- | S 11 --- | 0.0 | 1011 | 0.9
14:00 Uhr | wolkig | 23 --- --- 27 --- | SW 13 --- | 0.0 | 1010 | 1.1
17:00 Uhr | wolkig | 22 --- --- 26 --- | SW 15 --- | 0.0 | 1010 | 1.0
20:00 Uhr | wolkig | 20 25 --- 22 --- | SW 11 --- | 0.0 | 1011 | 0.9
23:00 Uhr | wolkig | 17 --- --- 19 19 | W 7 --- | 0.0 0.0 | 1012 | 0.3 4.7
Samstag - 29.06.2024
| Wetter - | Temperaturen | Wind | Niederschlag | Druck | Sonne
Zeit GZ | Bewölkung | TT MAX MIN TG TM | DD FF FX3 | RR3 RR24 | PPPP | SS3 SS24
02:00 Uhr | leichter Regen | 16 --- --- 17 --- | W 7 --- | 0.0 | 1012 | 0.0
05:00 Uhr | leichter Regen | 15 --- --- 16 --- | W 7 --- | 3.0 | 1013 | 0.0
08:00 Uhr | leichter Regen | 16 --- 14 19 --- | SW 7 --- | 1.2 | 1014 | 0.4
11:00 Uhr | leichter Regen | 20 --- --- 24 --- | S 11 --- | 2.0 | 1014 | 0.9
14:00 Uhr | wolkig | 21 --- --- 25 --- | SW 15 --- | 1.6 | 1013 | 1.1
17:00 Uhr | wolkig | 21 --- --- 25 --- | SW 15 --- | 0.0 | 1013 | 1.1
20:00 Uhr | wolkig | 20 23 --- 22 --- | SW 11 --- | 0.0 | 1013 | 0.9
23:00 Uhr | wolkig | 16 --- --- 17 18 | W 7 --- | 0.0 7.8 | 1014 | 0.4 4.9
Sonntag - 30.06.2024
| Wetter - | Temperaturen | Wind | Niederschlag | Druck | Sonne
Zeit GZ | Bewölkung | TT MAX MIN TG TM | DD FF FX3 | RR3 RR24 | PPPP | SS3 SS24
02:00 Uhr | wolkig | 14 --- --- 15 --- | W 7 --- | 0.0 | 1014 | 0.0
05:00 Uhr | wolkig | 13 --- --- 14 --- | W 7 --- | 0.0 | 1014 | 0.0
08:00 Uhr | wolkig | 15 --- 12 18 --- | SW 7 --- | 0.0 | 1014 | 0.7
11:00 Uhr | wolkig | 19 --- --- 23 --- | SW 11 --- | 0.0 | 1014 | 1.3
14:00 Uhr | wolkig | 22 --- --- 26 --- | SW 13 --- | 0.0 | 1014 | 1.4
17:00 Uhr | wolkig | 22 --- --- 26 --- | SW 13 --- | 0.0 | 1013 | 1.3
20:00 Uhr | wolkig | 20 23 --- 22 --- | W 11 --- | 0.0 | 1014 | 1.3
23:00 Uhr | wolkig | 16 --- --- 18 18 | NW 7 --- | 0.0 0.0 | 1015 | 0.4 6.3
Montag - 01.07.2024
| Wetter - | Temperaturen | Wind | Niederschlag | Druck | Sonne
Zeit GZ | Bewölkung | TT MAX MIN TG TM | DD FF FX3 | RR3 RR24 | PPPP | SS3 SS24
02:00 Uhr | wolkig | 14 --- --- 15 --- | NW 9 --- | 0.0 | 1015 | 0.0
05:00 Uhr | wolkig | 13 --- --- 14 --- | NW 7 --- | 0.0 | 1015 | 0.0
08:00 Uhr | wolkig | 16 --- 12 18 --- | W 9 --- | 0.0 | 1015 | 0.8
11:00 Uhr | wolkig | 20 --- --- 23 --- | SW 13 --- | 0.0 | 1015 | 1.4
14:00 Uhr | wolkig | 22 --- --- 26 --- | SW 13 --- | 0.0 | 1014 | 1.5
17:00 Uhr | wolkig | 23 --- --- 25 --- | W 13 --- | 0.0 | 1014 | 1.4
20:00 Uhr | wolkig | 21 24 --- 22 --- | NW 11 --- | 0.0 | 1014 | 1.3
23:00 Uhr | wolkig | 17 --- --- 17 18 | NW 7 --- | 0.0 0.0 | 1015 | 0.5 6.8
Dienstag - 02.07.2024
| Wetter - | Temperaturen | Wind | Niederschlag | Druck | Sonne
Zeit GZ | Bewölkung | TT MAX MIN TG TM | DD FF FX3 | RR3 RR24 | PPPP | SS3 SS24
02:00 Uhr | wolkig | 15 --- --- 16 --- | W 7 --- | 0.0 | 1014 | 0.0
05:00 Uhr | wolkig | 14 --- --- 15 --- | W 7 --- | 0.0 | 1014 | 0.0
---:00 Uhr | --- | --- --- --- --- --- | --- --- --- | --- | --- | ---
---:00 Uhr | --- | --- --- --- --- --- | --- --- --- | --- | --- | ---
---:00 Uhr | --- | --- --- --- --- --- | --- --- --- | --- | --- | ---
---:00 Uhr | --- | --- --- --- --- --- | --- --- --- | --- | --- | ---
---:00 Uhr | --- | --- --- --- --- --- | --- --- --- | --- | --- | ---
---:00 Uhr | --- | --- --- --- --- --- | --- --- --- | --- --- | --- | ---


Wetter : Wetter/Bewölkung zum Termin (aktuelle Stunde) TT : Lufttemperatur in Grad Celsius zum Termin MAX : Maximum Lufttemperatur in Grad Celsius letzte 12 Stunden MIN : Minimum Lufttemperatur der vergangenen Nacht in Grad Celsius letzte 12 Stunden TG : Temperatur in 5cm überm Erdboden TM : Tagesmittel Lufttemperatur in Grad Celsius letzte 24 Stunden DD : Windrichtung zum Termin FF : Windgeschwindigkeit zum Termin FX1 : höchste Windspitze im Bezugszeitraum letzte 1 Stunde in km/h FX3 : höchste Windspitze im Bezugszeitraum letzte 3 Stunden in km/h PPPP : reduzierter Luftdruck auf Meereshöhe in hPa zum Termin RR1 : Niederschlagsmenge im Bezugszeitraum letzte 1 Stunde in mm = l/qm RR3 : Niederschlagsmenge im Bezugszeitraum letzte 3 Stunden in mm = l/qm RR24 : Niederschlagsmenge im Bezugszeitraum letzte 24 Stunden in mm = l/qm SS1 : Sonnenscheindauer letzte 1 Stunde SS3 : Sonnenscheindauer letzte 3 Stunden SS24 : Sonnenscheindauer letzte 24 Stunden --- : Wert nicht vorhanden